Weather History for KBNO - February, 2013

Change the Weather History Date:

Saturday, February 23, 2013

  Actual Average Record
Temperature  
Mean Temperature 31 °F 31 °F  
Max Temperature 38 °F 42 °F 66 °F (1995)
Min Temperature 23 °F 20 °F 9 °F (1969)
Degree Days  
Heating Degree Days 34 34  
Month to date heating degree days 785 849  
Since 1 July heating degree days 5185 5362  
Cooling Degree Days 0 0  
Month to date cooling degree days 0 0  
Year to date cooling degree days 0 0  
Moisture  
Dew Point 18 °F    
Average Humidity 64    
Maximum Humidity 75    
Minimum Humidity 52    
Precipitation  
Precipitation T in 0.04 in 0.30 in (2010)
Month to date precipitation 0.30 0.83  
Year to date precipitation 0.69 2.02  
Sea Level Pressure  
Sea Level Pressure 30.13 in    
Wind  
Wind Speed 15 mph (West)    
Max Wind Speed 26 mph    
Max Gust Speed 36 mph    
Visibility 10 miles    
Events      
T = Trace of Precipitation, MM = Missing Value Source: NWS Daily Summary

Daily Weather History Graph

Daily Weather History Graph

Search for Another Location

Airport or City:

Trip Planner

Search our weather history database for the weather conditions in past years. The results will help you decide how hot, cold, wet, or windy it might be!

Date:

Astronomy

Feb. 23, 2013 Rise Set
Actual Time 6:41 AM PST 5:37 PM PST
Civil Twilight 6:12 AM PST 6:06 PM PST
Nautical Twilight 5:39 AM PST 6:39 PM PST
Astronomical Twilight 5:06 AM PST 7:12 PM PST
Moon 3:50 PM PST (2/23) 5:09 AM PST (2/23)
Length of Visible Light 11h 53m
Length of Day
10h 55m
Waxing Gibbous, 96% of the Moon is Illuminated
Feb 23
Waxing Gibbous
Feb 25
Full
Mar 4
Last Quarter
Mar 11
New
Mar 19
First Quarter

Hourly Weather History & Observations

Time (PST) Temp. Windchill Dew Point Humidity Pressure Visibility Wind Dir Wind Speed Gust Speed Precip Events Conditions
12:53 AM 28.9 °F 16.1 °F 21.0 °F 72% 29.89 in 10.0 mi West 19.6 mph 33.4 mph 0.00 in   Partly Cloudy
1:53 AM 27.0 °F 15.2 °F 18.0 °F 69% 29.94 in 10.0 mi West 15.0 mph - N/A   Clear
2:53 AM 27.0 °F 11.9 °F 18.0 °F 69% 29.97 in 10.0 mi West 25.3 mph 32.2 mph N/A   Clear
3:53 AM 25.0 °F 16.3 °F 17.1 °F 72% 30.00 in 10.0 mi West 8.1 mph - N/A   Clear
4:53 AM 24.1 °F 12.5 °F 17.1 °F 75% 30.01 in 10.0 mi WSW 12.7 mph - N/A   Clear
5:53 AM 24.1 °F 15.2 °F 17.1 °F 75% 30.05 in 10.0 mi West 8.1 mph - N/A   Scattered Clouds
6:53 AM 24.1 °F 12.0 °F 16.0 °F 71% 30.08 in 10.0 mi WSW 13.8 mph - N/A   Scattered Clouds
7:53 AM 26.1 °F 15.0 °F 17.1 °F 69% 30.09 in 10.0 mi WSW 12.7 mph 24.2 mph N/A   Scattered Clouds
8:53 AM 28.9 °F 15.4 °F 19.0 °F 67% 30.10 in 10.0 mi West 21.9 mph 28.8 mph N/A   Mostly Cloudy
9:15 AM 30.2 °F 18.1 °F 19.4 °F 64% 30.04 in 10.0 mi West 18.4 mph 29.9 mph N/A   Overcast
9:38 AM 30.2 °F 16.5 °F 19.4 °F 64% 30.05 in 10.0 mi West 24.2 mph 29.9 mph N/A   Scattered Clouds
9:53 AM 30.9 °F 19.1 °F 19.0 °F 61% 30.12 in 10.0 mi West 18.4 mph 27.6 mph N/A   Partly Cloudy
10:53 AM 32.0 °F 20.5 °F 19.0 °F 59% 30.15 in 10.0 mi West 18.4 mph 26.5 mph N/A   Mostly Cloudy
11:53 AM 35.1 °F 23.8 °F 19.9 °F 54% 30.14 in 10.0 mi West 20.7 mph 25.3 mph N/A   Scattered Clouds
12:53 PM 36.0 °F 26.0 °F 19.0 °F 50% 30.13 in 10.0 mi West 17.3 mph 33.4 mph N/A   Scattered Clouds
1:53 PM 36.0 °F 24.7 °F 19.0 °F 50% 30.13 in 10.0 mi West 21.9 mph 33.4 mph N/A   Clear
2:53 PM 33.1 °F 23.4 °F 19.9 °F 59% 30.15 in 10.0 mi West 13.8 mph 33.4 mph N/A   Scattered Clouds
3:53 PM 34.0 °F 23.0 °F 21.0 °F 59% 30.18 in 10.0 mi West 18.4 mph 24.2 mph N/A   Scattered Clouds
4:53 PM 33.1 °F 23.9 °F 19.0 °F 56% 30.20 in 10.0 mi WNW 12.7 mph 21.9 mph 0.00 in   Partly Cloudy
5:53 PM 30.0 °F 20.0 °F 19.0 °F 64% 30.23 in 10.0 mi West 12.7 mph - N/A   Clear
6:53 PM 28.9 °F 18.2 °F 19.9 °F 69% 30.25 in 10.0 mi West 13.8 mph - N/A   Clear
7:53 PM 27.0 °F 14.7 °F 19.9 °F 75% 30.27 in 10.0 mi West 16.1 mph - N/A   Clear
8:53 PM 25.0 °F 11.7 °F 18.0 °F 75% 30.28 in 10.0 mi West 17.3 mph - N/A   Clear
9:53 PM 24.1 °F 11.5 °F 17.1 °F 75% 30.30 in 10.0 mi WNW 15.0 mph - N/A   Clear
10:53 PM 24.1 °F 14.4 °F 16.0 °F 71% 30.32 in 10.0 mi SW 9.2 mph - N/A   Clear
11:53 PM 23.0 °F - 16.0 °F 74% 30.32 in 10.0 mi Calm Calm - N/A   Clear